Location: Владивосток
(43.1151°N, 131.8856°E)
Time: 18:39:13
(UTC+10:00)

FENGYUN 1C DEB - Pass Details

Date: 30 May 2025
Orbit: 716 x 738 km, 98.8° (Epoch: 20 June)

Event Time Altitude Azimuth Distance (km) Brightness Sun altitude
Exits shadow 01:15:01 21° 98° (E) 1,607 ? -25.2°
Maximum altitude 01:16:49 26° 65° (ENE) 1,406 ? -25.1°
Drops below altitude 10° 01:20:51 10° 9° (N) 2,229 ? -25.1°
Sets 01:23:25 0° 358° (N) 3,151 ? -25.1°
